Flag for Switzerland Weather past 2 weeks in Aarau, Aargau, Switzerland

Now
55 °F

Refreshingly cool.


Feels Like: 50 °F
Forecast: 26 / 62 °F
Wind: 22 mph from Northeast

Location: Wynau


UV Index: 3 (Moderate)

Visibility: N/A


Pressure: 30.26 "Hg

Humidity: 33%

Dew point: 27 °F

Location of AarauLocation

Historic Weather in Aarau

°F

Aarau temperature yesterday

Maximum temperature yesterday: 53 °F (at 3:00 PM)
Minimum temperature yesterday: 39 °F (at 8:00 AM)
Average temperature yesterday: 47 °F

Past Weeks' High & Low Weather Summary

 TemperatureHumidityPressure
High70 °F (Apr 11, 5:00 PM)100% (Apr 2, 6:00 AM)30.38 "Hg (Apr 2, 6:00 AM)
Low32 °F (Apr 16, 6:00 AM)28% (Apr 13, 1:00 PM)29.66 "Hg (Apr 3, 6:00 PM)
Average52 °F71%30.04 "Hg
* Reported Apr 1 4:00 PM — Apr 16 3:00 PM, Aarau, Weather by CustomWeather, © 2014

Note: Actual official high and low records may vary slightly from our data, if they occured in-between our weather recording intervals... More about our weather records

Advertising

Historic Weather Conditions — Data for Previous 24 hours

 ConditionsComfort  
Time TempWeatherWind HumidityBarometerVisibility
3:00 PM
Apr 16
55 °FRefreshingly cool.22 mph33%30.26 "HgN/A
2:00 PM53 °FCool.21 mph33%30.28 "HgN/A
1:00 PM52 °FCool.21 mph33%30.29 "HgN/A
12:00 PM50 °FCool.17 mph42%30.30 "HgN/A
10:00 AM44 °FQuite cool.15 mph56%30.32 "HgN/A
9:00 AM41 °FQuite cool.17 mph63%30.33 "HgN/A
8:00 AM37 °FChilly.10 mph72%30.34 "HgN/A
7:00 AM32 °FChilly.2 mph79%30.35 "HgN/A
6:00 AM32 °FChilly.1 mph83%30.34 "HgN/A
5:00 AM33 °FChilly.1 mph87%30.34 "HgN/A
4:00 AM32 °FChilly.2 mph83%30.35 "HgN/A
3:00 AM33 °FChilly.1 mph79%30.35 "HgN/A
2:00 AM36 °FChilly.1 mph68%30.36 "HgN/A
11:00 PM
Apr 15
41 °FQuite cool.2 mph56%30.32 "HgN/A
10:00 PM44 °FQuite cool.3 mph47%30.29 "HgN/A
9:00 PM45 °FCool.3 mph45%30.27 "HgN/A
8:00 PM47 °FCool.6 mph40%30.25 "HgN/A
7:00 PM50 °FCool.9 mph30%30.23 "HgN/A
6:00 PM52 °FCool.8 mph32%30.22 "HgN/A
4:00 PM53 °FCool.5 mph36%30.22 "HgN/A
Weather by CustomWeather, © 2014

See weather overview